Retour au catalogue

STARLINK-38154

ActifCommunicationsSSO
NORAD 100258·PAYLOAD·🇺🇸 United States

Lancé Aug 8, 2026 depuis Vandenberg Space Force Base

Loading…

Prochains Passages (prochaines 24 heures)

TLE

FraisSource: Space-Track

Époque: Sep 14, 2026, 14:29 UTC

1 A0258U 26181N   26257.60404026  .00272733  00000-0  17640-2 0  9991
2 A0258  97.2833 300.9303 0001357  60.7833 299.3568 15.75289089  7036

Suivez STARLINK-38154 en temps réel avec AllMySat

Download on the App Store